When you browse on this site, cookies collect data to enhance your experience and personalize the content and advertising you see.
Visit our Privacy Policy to learn more. By continuing to use the site, you agree to this use of cookies and data.
  • In Hungary
  • List of Countries
  • For 7 days
  • Water Temperature
  • Satellite Maps
  • Weather Map
  • News
  • Weather Widgets
  • user-avatar
    Login

    Hourly Weather Gao

    Today, 17 November, Saturday

    Time Temperature Precipitation Wind Pressure Humidity
    00:00 +22°C° 0.9 mm 0 mps 731 mmHg 96%
    01:00 +22°C° 0.9 mm 0 mps 731 mmHg 97%
    02:00 +22°C° 2.6 mm 0 mps 731 mmHg 97%
    03:00 +22°C° 2.6 mm 0 mps 731 mmHg 97%
    04:00 +22°C° 2.6 mm 0 mps 731 mmHg 97%
    05:00 +22°C° 2.1 mm 0 mps 731 mmHg 97%
    06:00 +22°C° 2.1 mm 0 mps 731 mmHg 97%
    07:00 +22°C° 2.1 mm 0 mps 732 mmHg 97%
    08:00 +26°C° 0.3 mm 1 mps 732 mmHg 87%
    09:00 +28°C° 0.3 mm 1 mps 732 mmHg 78%
    10:00 +31°C° 0.3 mm 1 mps 732 mmHg 68%
    11:00 +32°C° 0.1 mm 1 mps 731 mmHg 60%
    12:00 +34°C° 0.1 mm 1 mps 730 mmHg 53%
    13:00 +35°C° 0.1 mm 1 mps 729 mmHg 46%
    14:00 +35°C° 0 mm 1 mps 729 mmHg 48%
    15:00 +34°C° 0 mm 1 mps 729 mmHg 49%
    16:00 +34°C° 0 mm 1 mps 728 mmHg 51%
    17:00 +32°C° 0 mm 1 mps 729 mmHg 60%
    18:00 +30°C° 0 mm 1 mps 729 mmHg 68%
    19:00 +27°C° 0 mm 1 mps 730 mmHg 76%
    20:00 +27°C° 0.6 mm 1 mps 730 mmHg 81%
    21:00 +24°C° 0.6 mm 0 mps 730 mmHg 85%
    22:00 +23°C° 0.6 mm 0 mps 731 mmHg 90%
    23:00 +23°C° 0.8 mm 0 mps 731 mmHg 91%

    Tomorrow, 18 November, Sunday

    Time Temperature Precipitation Wind Pressure Humidity
    00:00 +22°C° 0.8 mm 0 mps 730 mmHg 93%
    01:00 +22°C° 0.8 mm 0 mps 730 mmHg 95%
    02:00 +22°C° 0.1 mm 0 mps 730 mmHg 95%
    03:00 +22°C° 0.1 mm 0 mps 730 mmHg 96%
    04:00 +22°C° 0.1 mm 0 mps 730 mmHg 96%
    05:00 +22°C° 0 mm 0 mps 730 mmHg 95%
    06:00 +23°C° 0 mm 0 mps 730 mmHg 94%
    07:00 +23°C° 0 mm 0 mps 731 mmHg 93%
    08:00 +25°C° 0 mm 0 mps 731 mmHg 85%
    09:00 +27°C° 0 mm 0 mps 731 mmHg 77%
    10:00 +28°C° 0 mm 0 mps 731 mmHg 70%
    11:00 +30°C° 0 mm 0 mps 731 mmHg 62%
    12:00 +32°C° 0 mm 0 mps 730 mmHg 55%
    13:00 +35°C° 0 mm 1 mps 729 mmHg 47%
    14:00 +35°C° 0 mm 1 mps 728 mmHg 46%
    15:00 +33°C° 0 mm 0 mps 728 mmHg 45%
    16:00 +33°C° 0 mm 0 mps 727 mmHg 44%
    17:00 +31°C° 0 mm 0 mps 727 mmHg 52%
    18:00 +29°C° 0 mm 0 mps 728 mmHg 60%
    19:00 +26°C° 0 mm 0 mps 728 mmHg 68%
    20:00 +26°C° 0 mm 0 mps 729 mmHg 71%
    21:00 +25°C° 0 mm 0 mps 729 mmHg 74%
    22:00 +24°C° 0 mm 0 mps 730 mmHg 77%
    23:00 +24°C° 0 mm 0 mps 729 mmHg 79%

    Day after tomorrow, 19 November, Monday

    Time Temperature Precipitation Wind Pressure Humidity
    00:00 +26°C° 0 mm 1 mps 729 mmHg 81%
    01:00 +25°C° 0 mm 1 mps 729 mmHg 84%
    02:00 +25°C° 0 mm 1 mps 729 mmHg 85%
    03:00 +25°C° 0 mm 1 mps 729 mmHg 87%
    04:00 +24°C° 0 mm 1 mps 729 mmHg 89%
    05:00 +25°C° 0 mm 1 mps 729 mmHg 86%
    06:00 +26°C° 0 mm 1 mps 730 mmHg 83%
    07:00 +27°C° 0 mm 1 mps 730 mmHg 81%
    08:00 +28°C° 0.3 mm 1 mps 731 mmHg 75%
    09:00 +30°C° 0.3 mm 1 mps 731 mmHg 68%
    10:00 +32°C° 0.3 mm 1 mps 731 mmHg 62%
    11:00 +33°C° 0.5 mm 1 mps 730 mmHg 59%
    12:00 +34°C° 0.5 mm 1 mps 729 mmHg 55%
    13:00 +35°C° 0.5 mm 1 mps 728 mmHg 52%
    14:00 +35°C° 0 mm 1 mps 728 mmHg 51%
    15:00 +35°C° 0 mm 1 mps 727 mmHg 50%
    16:00 +33°C° 0 mm 0 mps 727 mmHg 49%
    17:00 +31°C° 0 mm 0 mps 727 mmHg 56%
    18:00 +29°C° 0 mm 0 mps 728 mmHg 63%
    19:00 +27°C° 0 mm 0 mps 728 mmHg 70%
    20:00 +28°C° 0.6 mm 1 mps 728 mmHg 76%
    21:00 +27°C° 0.6 mm 1 mps 729 mmHg 82%
    22:00 +26°C° 0.6 mm 1 mps 729 mmHg 87%
    23:00 +25°C° 0.4 mm 1 mps 729 mmHg 90%

    20 November, Tuesday

    Time Temperature Precipitation Wind Pressure Humidity
    00:00 +25°C° 0.4 mm 1 mps 729 mmHg 93%
    01:00 +24°C° 0.4 mm 1 mps 729 mmHg 96%
    02:00 +24°C° 1.3 mm 1 mps 729 mmHg 96%
    03:00 +22°C° 1.3 mm 0 mps 729 mmHg 97%
    04:00 +22°C° 1.3 mm 0 mps 729 mmHg 98%
    05:00 +22°C° 0.1 mm 0 mps 729 mmHg 97%
    06:00 +22°C° 0.1 mm 0 mps 730 mmHg 96%
    07:00 +23°C° 0.1 mm 0 mps 731 mmHg 95%
    08:00 +25°C° 0.2 mm 1 mps 731 mmHg 94%
    09:00 +26°C° 0.2 mm 1 mps 731 mmHg 92%
    10:00 +27°C° 0.2 mm 1 mps 731 mmHg 90%
    11:00 +29°C° 0 mm 1 mps 730 mmHg 76%
    12:00 +32°C° 0 mm 1 mps 729 mmHg 62%
    13:00 +35°C° 0 mm 1 mps 728 mmHg 48%
    14:00 +35°C° 0 mm 1 mps 728 mmHg 47%
    15:00 +33°C° 0 mm 0 mps 727 mmHg 45%
    16:00 +33°C° 0 mm 0 mps 727 mmHg 44%
    17:00 +31°C° 0 mm 0 mps 727 mmHg 52%
    18:00 +28°C° 0 mm 0 mps 728 mmHg 60%
    19:00 +28°C° 0 mm 1 mps 728 mmHg 68%
    20:00 +28°C° 0.1 mm 1 mps 729 mmHg 71%
    21:00 +27°C° 0.1 mm 1 mps 729 mmHg 73%
    22:00 +26°C° 0.1 mm 1 mps 729 mmHg 76%
    23:00 +26°C° 0 mm 1 mps 729 mmHg 78%

    21 November, Wednesday

    Time Temperature Precipitation Wind Pressure Humidity
    00:00 +26°C° 0 mm 1 mps 729 mmHg 80%
    01:00 +25°C° 0 mm 1 mps 729 mmHg 83%
    02:00 +23°C° 0.4 mm 0 mps 729 mmHg 86%
    03:00 +22°C° 0.4 mm 0 mps 729 mmHg 89%
    04:00 +22°C° 0.4 mm 0 mps 729 mmHg 92%
    05:00 +22°C° 0.9 mm 0 mps 729 mmHg 93%
    06:00 +24°C° 0.9 mm 1 mps 730 mmHg 94%
    07:00 +24°C° 0.9 mm 1 mps 731 mmHg 95%
    08:00 +25°C° 1.1 mm 1 mps 731 mmHg 96%
    09:00 +25°C° 1.1 mm 1 mps 731 mmHg 96%
    10:00 +25°C° 1.1 mm 1 mps 731 mmHg 96%
    11:00 +27°C° 0.2 mm 1 mps 730 mmHg 88%
    12:00 +28°C° 0.2 mm 1 mps 729 mmHg 81%
    13:00 +30°C° 0.2 mm 1 mps 728 mmHg 73%
    14:00 +31°C° 0 mm 1 mps 728 mmHg 68%
    15:00 +31°C° 0 mm 1 mps 728 mmHg 63%
    16:00 +32°C° 0 mm 1 mps 727 mmHg 58%
    17:00 +30°C° 0.2 mm 1 mps 728 mmHg 68%
    18:00 +28°C° 0.2 mm 1 mps 728 mmHg 78%
    19:00 +26°C° 0.2 mm 1 mps 729 mmHg 88%
    20:00 +25°C° 0.1 mm 1 mps 729 mmHg 89%
    21:00 +25°C° 0.1 mm 1 mps 730 mmHg 91%
    22:00 +24°C° 0.1 mm 1 mps 730 mmHg 93%
    23:00 +24°C° 0 mm 1 mps 729 mmHg 94%

    22 November, Thursday

    Time Temperature Precipitation Wind Pressure Humidity
    00:00 +24°C° 0 mm 1 mps 729 mmHg 95%
    01:00 +24°C° 0 mm 1 mps 729 mmHg 96%
    02:00 +22°C° 1.4 mm 0 mps 729 mmHg 96%
    03:00 +22°C° 1.4 mm 0 mps 729 mmHg 97%
    04:00 +21°C° 1.4 mm 0 mps 729 mmHg 98%
    05:00 +24°C° 1 mm 1 mps 729 mmHg 97%
    06:00 +24°C° 1 mm 1 mps 730 mmHg 96%
    07:00 +25°C° 1 mm 1 mps 730 mmHg 95%
    08:00 +27°C° 0 mm 1 mps 730 mmHg 84%
    09:00 +29°C° 0 mm 1 mps 731 mmHg 73%
    10:00 +31°C° 0 mm 2 mps 731 mmHg 61%
    11:00 +34°C° 0 mm 2 mps 730 mmHg 56%
    12:00 +34°C° 0 mm 1 mps 729 mmHg 50%
    13:00 +35°C° 0 mm 1 mps 728 mmHg 45%
    14:00 +34°C° 0 mm 1 mps 727 mmHg 49%
    15:00 +33°C° 0 mm 1 mps 727 mmHg 53%
    16:00 +30°C° 0 mm 0 mps 726 mmHg 57%
    17:00 +29°C° 0 mm 0 mps 727 mmHg 64%
    18:00 +27°C° 0 mm 0 mps 728 mmHg 70%
    19:00 +26°C° 0 mm 0 mps 728 mmHg 76%
    20:00 +27°C° 0.1 mm 1 mps 729 mmHg 80%
    21:00 +26°C° 0.1 mm 1 mps 729 mmHg 83%
    22:00 +26°C° 0.1 mm 1 mps 729 mmHg 86%
    23:00 +25°C° 0.3 mm 1 mps 729 mmHg 89%
    Show more